Regional Weather Roundup
Issued by NWS Boston, MA

Home | Current Version | Previous Version | Text Only | Print | Product List | Glossary On
Versions: 1 2 3 4 5 6 7 8 9 10 11 12 13 14 15 16 17 18 19 20 21 22 23 24 25 26 27 28
000
ASUS41 KBOX 261410
RWRBOX

REGIONAL WEATHER ROUNDUP
NATIONAL WEATHER SERVICE TAUNTON MA
1000 AM EDT TUE SEP 26 2017

NOTE:  "FAIR" INDICATES FEW OR NO CLOUDS BELOW 12,000 FEET WITH NO
SIGNIFICANT WEATHER AND/OR OBSTRUCTIONS TO VISIBILITY.

MAZALL-261500-
EASTERN MASSACHUSETTS

CITY           SKY/WX    TMP DP  RH WIND       PRES   REMARKS
BOSTON         PTSUNNY   75  68  78 W6        30.04F
BEVERLY        FOG       69  68  96 NW3       30.04F VSB 3/4
LAWRENCE       CLOUDY    69  66  90 CALM      30.07S FOG
BEDFORD        CLOUDY    68  64  87 NW3       30.04F
BLUE HILL        N/A     68  67  96 NW3       30.05F
NORWOOD        CLOUDY    73  70  90 CALM      30.04S
MARSHFIELD     CLOUDY    70  70 100 CALM      30.05S
PLYMOUTH       CLOUDY    69  66  90 CALM      30.06S
TAUNTON        CLOUDY    69  67  93 SE3       30.05S
NEW BEDFORD    CLOUDY    68  67  96 SW5       30.05S
$$

MAZALL-261500-
CAPE COD AND THE ISLANDS

CITY           SKY/WX    TMP DP  RH WIND       PRES   REMARKS
FALMOUTH       CLOUDY    68  68 100 CALM      30.07R
HYANNIS        CLOUDY    70  68  93 CALM      30.05R
CHATHAM        CLOUDY    68  68 100 VRB3      30.06S
PROVINCETOWN   CLOUDY    68  68 100 CALM      30.06S FOG
NANTUCKET      CLOUDY    70  70 100 VRB3      30.05S FOG
MARTHAS VNYRD  CLOUDY    73  69  87 CALM      30.05F
$$

MAZALL-261500-
CENTRAL AND WESTERN MASSACHUSETTS

CITY           SKY/WX    TMP DP  RH WIND       PRES   REMARKS
WORCESTER      MOSUNNY   75  66  73 VRB3      30.08S
FITCHBURG      SUNNY     77  67  71 CALM      30.06S
ORANGE         CLOUDY    65  65 100 CALM      30.07S
SPRINGFIELD    CLOUDY    67  66  99 CALM      30.05F FOG
WESTFIELD      CLOUDY    69  67  93 CALM      30.06S
NORTH ADAMS    MOSUNNY   69  66  90 CALM      30.07F
PITTSFIELD     CLOUDY    68  66  93 CALM      30.08S FOG
$$

RIZALL-261500-
RHODE ISLAND

CITY           SKY/WX    TMP DP  RH WIND       PRES   REMARKS
PROVIDENCE     PTSUNNY   73  68  84 VRB3      30.07R
NEWPORT        CLOUDY    68  68 100 NW3       30.05F FOG
BLOCK ISLAND   CLOUDY    68  66  93 S5        30.07S FOG
SMITHFIELD     MOSUNNY   72  66  81 CALM      30.07S
WESTERLY       CLOUDY    71  68  90 CALM      30.07S
$$

CTZALL-261500-
CONNECTICUT

CITY           SKY/WX    TMP DP  RH WIND       PRES   REMARKS
BRADLEY INTL   CLOUDY    72  65  78 CALM      30.06S
HARTFORD       CLOUDY    67  66  97 CALM      30.06R
BRIDGEPORT     CLOUDY    69  67  93 E6        30.06S FOG
DANBURY        MOSUNNY   71  66  84 CALM      30.08S HAZE
GROTON         FOG       69  67  93 S5        30.06S VSB 1
NEW HAVEN      PTSUNNY   70  68  93 CALM      30.06F FOG
CHESTER        NOT AVBL
MERIDEN        MOSUNNY   69  65  86 CALM      30.06S
WILLIMANTIC    CLOUDY    69  67  93 CALM      30.07R
OXFORD         MOSUNNY   72  67  84 S3        30.08S
$$

MEZ002-015-021-024-NHZ003-005-008-011-012-014-VTZ005-008-261500-
NORTHERN NEW ENGLAND

CITY           SKY/WX    TMP DP  RH WIND       PRES   REMARKS
PORTLAND ME    MOSUNNY   72  64  76 S6        30.03S
BANGOR ME      PTSUNNY   74  64  71 S5        30.02S
CONCORD NH     MOSUNNY   68  66  93 CALM      30.05F
MANCHESTER NH  PTSUNNY   74  66  76 VRB5      30.03F
NASHUA NH      SUNNY     74  66  76 SE5       30.06S
PORTSMOUTH NH  PTSUNNY   68  64  88 SE5       30.03F
JAFFREY NH     SUNNY     75  68  78 CALM      30.08S
KEENE NH       CLOUDY    71  67  87 CALM      30.07F
BURLINGTON VT  CLOUDY    76  69  79 S5        30.03F
MT. WASHINGTON PTSUNNY   63  43  48 VRB1        N/A
$$

NYZ052-076-261500-
EASTERN NEW YORK

CITY           SKY/WX    TMP DP  RH WIND       PRES   REMARKS
ALBANY         PTSUNNY   75  66  73 CALM      30.05F
NEW YORK CITY  CLOUDY    71  68  90 VRB6      30.06R
$$

ANZALL-261500-
MARINE OBSERVATIONS

STATION/POSITION TIME  TEMP    WIND        PRES    VSBY  WAVE
                       AIR SEA DIR/SP/G                  HT/PER
                 (UTC) (F)     (DEG/KT/KT) (MB)    (MI)  (FT/S)
BOSTON BUOY      1350   65 63   CALM  /  2 1017.4S         3/15
BUZZARDS BAY     1300   67     320/  1/  2 1018.2R
NANTUCKET SOUND  1350   63 62  290/  4/  6 1017.7R         1/16
MASS BAY-STELLWA 1304   62 62  260/  4/  4 1016.8F         3/16
ISLE OF SHOALS   1300   62     210/ 10/ 10 1017.2R
S OF BLOCK IS    NOT AVBL
$$

......................KEY.........................
  SKY/WX - SKY CONDITION/PRESENT WEATHER
  TMP    - TEMPERATURE IN FAHRENHEIT
  DWPT   - DEWPOINT IN FAHRENHEIT
  RH     - RELATIVE HUMIDITY IN PERCENT
  WIND   - DIRECTION AND SPEED IN MPH
  PRES   - MEAN SEA LEVEL PRESSURE IN INCHES OF HG
  WCI    - WIND CHILL INDEX
  VSB    - VISIBILITY IN MILES
  HX     - HEAT INDEX
  TC     - TEMPERATURE IN CELSIUS
  VRB    - VARIABLE WIND DIRECTION
  N/A    - NOT AVAILABLE




USA.gov is the U.S. government's official web portal to all federal, state and local government web resources and services.